Rochelle, IL

10:24 AM CDT on April 27, 2017 (GMT -0500)
Rochelle

Weather History for KRPJ - September, 2013

Change the Weather History Date:

Sunday, September 15, 2013

  Actual Average (KRFD) Record (KRFD)
Temperature  
Mean Temperature 54 °F -  
Max Temperature 58 °F 72 °F 102 °F (1939)
Min Temperature 51 °F 52 °F 35 °F (2007)
Degree Days  
Heating Degree Days 10    
Growing Degree Days 4 (Base 50)    
Moisture  
Dew Point 52 °F    
Average Humidity 90    
Maximum Humidity 95    
Minimum Humidity 79    
Precipitation  
Precipitation 0.61 in - - ()
Sea Level Pressure  
Sea Level Pressure 30.05 in    
Wind  
Wind Speed 4 mph (NE)    
Max Wind Speed 10 mph    
Max Gust Speed -    
Visibility 9 miles    
Events Rain    
Averages and records for this station are not official NWS values.
T = Trace of Precipitation, MM = Missing Value Source: NWS Daily Summary

Daily Weather History Graph

Daily Weather History Graph

Search for Another Location

Airport or City:

Trip Planner

Search our weather history database for the weather conditions in past years. The results will help you decide how hot, cold, wet, or windy it might be!

Date:

Astronomy

Sep. 15, 2013 Rise Set
Actual Time 6:36 AM CDT 7:05 PM CDT
Civil Twilight 6:08 AM CDT 7:33 PM CDT
Nautical Twilight 5:35 AM CDT 8:06 PM CDT
Astronomical Twilight 5:01 AM CDT 8:40 PM CDT
Moon 4:35 PM CDT (9/15) 2:11 AM CDT (9/15)
Length of Visible Light 13h 24m
Length of Day
12h 28m
Waxing Gibbous, 82% of the Moon is Illuminated
Sep 15
Waxing Gibbous
Sep 19
Full
Sep 26
Last Quarter
Oct 4
New
Oct 11
First Quarter

Hourly Weather History & Observations

Time (CDT) Temp. Dew Point Humidity Pressure Visibility Wind Dir Wind Speed Gust Speed Precip Events Conditions
12:15 AM 52.2 °F 46.0 °F 80% 30.02 in 10.0 mi South 4.6 mph - N/A   Clear
12:35 AM 52.0 °F 46.4 °F 81% 30.02 in 10.0 mi SSE 4.6 mph - N/A   Clear
12:55 AM 51.8 °F 46.4 °F 82% 30.02 in 10.0 mi Calm Calm - N/A   Clear
1:15 AM 51.3 °F 46.8 °F 85% 30.02 in 10.0 mi South 4.6 mph - N/A   Clear
1:35 AM 51.3 °F 46.9 °F 85% 30.02 in 10.0 mi SSE 3.5 mph - N/A   Clear
1:55 AM 51.4 °F 47.3 °F 86% 30.02 in 10.0 mi SSE 4.6 mph - N/A   Scattered Clouds
2:15 AM 52.0 °F 47.1 °F 83% 30.02 in 10.0 mi Calm Calm - N/A   Mostly Cloudy
2:35 AM 52.7 °F 47.5 °F 82% 30.01 in 10.0 mi SE 3.5 mph - N/A   Mostly Cloudy
2:55 AM 53.1 °F 47.3 °F 81% 30.02 in 10.0 mi Calm Calm - N/A   Scattered Clouds
3:15 AM 53.6 °F 48.0 °F 81% 30.04 in 10.0 mi Calm Calm - N/A   Mostly Cloudy
3:35 AM 53.8 °F 47.7 °F 80% 30.04 in 10.0 mi Calm Calm - N/A   Overcast
3:55 AM 54.0 °F 48.0 °F 80% 30.04 in 10.0 mi Calm Calm - N/A   Overcast
4:15 AM 54.3 °F 48.0 °F 79% 30.04 in 10.0 mi Calm Calm - N/A Rain Light Rain
4:35 AM 53.8 °F 48.9 °F 84% 30.04 in 10.0 mi Calm Calm - N/A   Overcast
4:55 AM 54.0 °F 49.5 °F 85% 30.03 in 10.0 mi Calm Calm - N/A   Overcast
5:15 AM 53.8 °F 49.8 °F 86% 30.04 in 10.0 mi Calm Calm - N/A   Overcast
5:35 AM 54.5 °F 49.6 °F 84% 30.04 in 10.0 mi Calm Calm - N/A Rain Light Rain
5:55 AM 54.7 °F 51.1 °F 88% 30.04 in 10.0 mi Calm Calm - N/A Rain Rain
6:15 AM 54.5 °F 50.9 °F 88% 30.05 in 10.0 mi NNW 4.6 mph - 0.01 in Rain Light Rain
6:35 AM 53.8 °F 50.9 °F 90% 30.05 in 7.0 mi North 4.6 mph - 0.04 in Rain Rain
6:55 AM 53.8 °F 51.8 °F 93% 30.05 in 10.0 mi NE 4.6 mph - 0.06 in Rain Rain
7:15 AM 53.6 °F 51.4 °F 92% 30.05 in 7.0 mi ENE 6.9 mph - 0.03 in Rain Light Rain
7:35 AM 52.9 °F 50.9 °F 93% 30.04 in 5.0 mi East 3.5 mph - 0.06 in Rain Rain
7:55 AM 53.2 °F 51.3 °F 93% 30.04 in 10.0 mi East 4.6 mph - 0.08 in Rain Light Rain
8:15 AM 53.4 °F 51.4 °F 93% 30.03 in 10.0 mi East 4.6 mph - N/A Rain Light Rain
8:35 AM 53.2 °F 51.4 °F 94% 30.02 in 5.0 mi East 5.8 mph - 0.04 in Rain Rain
8:55 AM 53.4 °F 51.8 °F 94% 30.02 in 10.0 mi East 6.9 mph - 0.04 in Rain Rain
9:15 AM 53.6 °F 51.8 °F 94% 30.02 in 7.0 mi East 6.9 mph - 0.01 in Rain Light Rain
9:35 AM 53.6 °F 51.8 °F 94% 30.02 in 7.0 mi ESE 5.8 mph - 0.03 in Rain Light Rain
9:55 AM 54.0 °F 52.0 °F 93% 30.02 in 5.0 mi SE 3.5 mph - 0.05 in Rain Rain
10:15 AM 54.0 °F 52.0 °F 93% 30.02 in 4.0 mi SSE 4.6 mph - 0.05 in Rain Rain
10:35 AM 54.0 °F 52.3 °F 94% 30.01 in 4.0 mi SE 5.8 mph - 0.12 in Rain Rain
10:55 AM 54.5 °F 52.3 °F 92% 30.01 in 5.0 mi SE 4.6 mph - 0.16 in Rain Rain
11:15 AM 55.0 °F 53.2 °F 94% 30.01 in 7.0 mi SE 4.6 mph - 0.01 in Rain Rain
11:35 AM 55.4 °F 53.6 °F 94% 30.01 in 10.0 mi SSE 6.9 mph - 0.01 in   Overcast
11:55 AM 56.3 °F 54.3 °F 93% 30.00 in 10.0 mi SSE 5.8 mph - 0.02 in   Overcast
12:15 PM 56.7 °F 54.5 °F 92% 30.00 in 10.0 mi South 4.6 mph - N/A Rain Light Rain
12:35 PM 57.2 °F 54.5 °F 91% 30.00 in 10.0 mi SSW 4.6 mph - N/A   Overcast
12:55 PM 57.2 °F 54.5 °F 91% 30.00 in 10.0 mi SSW 4.6 mph - N/A   Overcast
1:15 PM 57.4 °F 54.9 °F 91% 30.00 in 10.0 mi SSW 3.5 mph - N/A   Overcast
1:35 PM 57.7 °F 55.2 °F 91% 30.00 in 10.0 mi Calm Calm - N/A   Overcast
1:55 PM 58.1 °F 55.4 °F 91% 30.00 in 10.0 mi Calm Calm - N/A   Overcast
2:15 PM 58.1 °F 55.6 °F 91% 30.01 in 10.0 mi WNW 3.5 mph - N/A Rain Light Rain
2:35 PM 57.7 °F 55.8 °F 93% 30.01 in 3.0 mi Calm Calm - 0.10 in Rain Heavy Rain
2:55 PM 57.6 °F 55.9 °F 94% 30.02 in 4.0 mi WNW 3.5 mph - 0.15 in Rain Rain
3:15 PM 57.7 °F 56.3 °F 95% 30.03 in 3.0 mi WNW 3.5 mph - 0.04 in Rain Rain
3:35 PM 58.1 °F 56.7 °F 95% 30.03 in 7.0 mi NW 3.5 mph - 0.05 in Rain Light Rain
3:55 PM 58.1 °F 56.3 °F 94% 30.03 in 10.0 mi NW 5.8 mph - 0.05 in   Overcast
4:15 PM 58.5 °F 56.3 °F 93% 30.04 in 10.0 mi NW 6.9 mph - N/A   Overcast
4:35 PM 58.3 °F 56.3 °F 93% 30.04 in 10.0 mi NNW 6.9 mph - N/A   Overcast
4:55 PM 58.6 °F 56.1 °F 91% 30.04 in 10.0 mi North 9.2 mph - N/A   Overcast
5:15 PM 58.5 °F 55.6 °F 90% 30.05 in 10.0 mi North 9.2 mph - N/A   Overcast
5:35 PM 58.1 °F 54.9 °F 89% 30.06 in 10.0 mi North 10.4 mph - N/A   Overcast
5:55 PM 58.1 °F 54.9 °F 89% 30.07 in 10.0 mi North 9.2 mph - N/A   Overcast
6:15 PM 57.7 °F 54.7 °F 90% 30.08 in 10.0 mi North 5.8 mph - N/A   Overcast
6:35 PM 57.6 °F 54.5 °F 90% 30.09 in 10.0 mi North 8.1 mph - N/A   Overcast
6:55 PM 57.4 °F 54.5 °F 90% 30.09 in 10.0 mi North 6.9 mph - N/A   Overcast
7:15 PM 57.2 °F 54.5 °F 91% 30.10 in 10.0 mi North 4.6 mph - N/A   Overcast
7:35 PM 57.2 °F 54.7 °F 91% 30.12 in 10.0 mi North 4.6 mph - N/A   Overcast
7:55 PM 57.2 °F 54.9 °F 92% 30.12 in 10.0 mi North 6.9 mph - N/A   Overcast
8:15 PM 57.2 °F 54.9 °F 92% 30.13 in 10.0 mi North 5.8 mph - N/A   Overcast
8:35 PM 57.2 °F 54.9 °F 92% 30.14 in 10.0 mi North 9.2 mph - N/A   Overcast
8:55 PM 57.4 °F 54.9 °F 91% 30.14 in 10.0 mi North 6.9 mph - N/A   Overcast
9:15 PM 57.2 °F 54.7 °F 91% 30.15 in 10.0 mi North 6.9 mph - N/A   Overcast
9:35 PM 57.6 °F 54.5 °F 90% 30.15 in 10.0 mi North 6.9 mph - N/A   Overcast
9:55 PM 57.0 °F 54.1 °F 90% 30.16 in 10.0 mi North 5.8 mph - N/A   Overcast
10:15 PM 55.8 °F 53.6 °F 92% 30.16 in 10.0 mi North 4.6 mph - N/A   Mostly Cloudy
10:35 PM 55.6 °F 53.2 °F 92% 30.17 in 10.0 mi North 5.8 mph - N/A   Scattered Clouds
10:55 PM 54.7 °F 52.7 °F 93% 30.18 in 10.0 mi North 6.9 mph - N/A   Scattered Clouds
11:15 PM 54.1 °F 52.2 °F 93% 30.18 in 10.0 mi North 6.9 mph - N/A   Clear
11:35 PM 54.1 °F 52.2 °F 93% 30.18 in 10.0 mi North 9.2 mph - N/A   Clear
11:55 PM 54.0 °F 52.0 °F 93% 30.19 in 10.0 mi NNE 9.2 mph - N/A   Clear